Location: Vancouver
(49.2500°N, 123.1330°W)
Time: 10:05:03
(UTC-07:00)

AO-27 - Visible Passes

Search period start: 23 October 2017 00:00
Search period end: 02 November 2017 00:00
Orbit: 786 x 797 km, 98.8° (Epoch: 22 October)

Date Brightness Start Highest point End Pass type
(mag) Time Alt. Az. Time Alt. Az. Time Alt. Az.
23 Oct 9.3 04:15:43 10° NE 04:20:19 30° E 04:21:51 26° SE visible
23 Oct 8.0 05:54:58 10° N 05:59:58 45° WNW 06:02:35 25° WSW visible
24 Oct 10.0 03:47:28 10° NE 03:50:57 18° E 03:52:17 16° ESE visible
24 Oct 7.5 05:25:45 10° NNE 05:31:01 76° WNW 05:33:01 39° SSW visible
24 Oct 9.3 07:06:53 10° NNW 07:09:40 15° NW 07:12:26 10° W visible
25 Oct 8.0 04:56:43 10° NNE 05:01:57 65° ESE 05:03:28 44° SSE visible
25 Oct 8.8 06:36:57 10° N 06:41:00 23° WNW 06:44:12 13° WSW visible
26 Oct 8.9 04:27:53 10° NNE 04:32:45 37° E 04:33:54 33° SE visible
26 Oct 8.2 06:07:27 10° N 06:12:14 37° WNW 06:14:39 24° WSW visible
27 Oct 9.7 03:59:24 10° NE 04:03:26 22° E 04:04:19 21° ESE visible
27 Oct 7.6 05:38:09 10° N 05:43:20 61° WNW 05:45:04 40° SW visible
27 Oct 9.5 07:19:52 10° NNW 07:21:49 12° NW 07:23:45 10° WNW visible
28 Oct 10.4 03:31:47 10° ENE 03:33:59 13° E 03:34:45 12° E visible
28 Oct 7.7 05:09:02 10° NNE 05:14:19 80° ESE 05:15:29 55° S visible
28 Oct 9.0 06:49:35 10° NNW 06:53:11 19° NW 06:56:14 12° W visible
29 Oct 8.5 04:40:06 10° NNE 04:45:10 47° E 04:45:56 44° SE visible
29 Oct 8.5 06:19:57 10° N 06:24:28 30° WNW 06:26:40 22° W visible
30 Oct 9.4 04:11:27 10° NE 04:15:55 27° E 04:16:21 27° ESE visible
30 Oct 7.8 05:50:34 10° N 05:55:37 49° WNW 05:57:05 38° WSW visible
31 Oct 10.2 03:43:20 10° NE 03:46:31 16° E 03:46:46 16° E visible
31 Oct 7.5 05:21:23 10° NNE 05:26:40 83° WNW 05:27:31 63° SSW visible
31 Oct 9.2 07:02:18 10° NNW 07:05:22 16° NW 07:08:15 11° W visible
01 Nov 8.1 04:52:22 10° NNE 04:57:34 59° ESE 04:57:56 57° ESE visible
01 Nov 8.7 06:32:29 10° N 06:36:42 25° WNW 06:38:41 20° W visible
